| time (UTC) | temp F | wind direction | speed MPH | gust MPH | rain 1hr in | rain 24hr in | rain mn in | humidity % | barometer mb |
| 20260901211533 | 94 | 272 | 0.0 | 4.0 | 0.00 | 0.10 | 0.00 | 62 | 1014.7 |
| 20260901210031 | 94 | 194 | 0.0 | 2.0 | 0.00 | 0.10 | 0.00 | 67 | 1014.7 |
| 20260901204525 | 94 | 240 | 0.0 | 3.0 | 0.00 | 0.10 | 0.00 | 61 | 1014.8 |
| 20260901203032 | 95 | 229 | 0.0 | 3.0 | 0.00 | 0.10 | 0.00 | 62 | 1014.9 |
| 20260901201533 | 95 | 352 | 0.0 | 4.0 | 0.00 | 0.10 | 0.00 | 61 | 1015.0 |
| 20260901200037 | 95 | 242 | 0.0 | 4.0 | 0.00 | 0.11 | 0.00 | 59 | 1015.0 |
| 20260901194533 | 95 | 197 | 1.0 | 4.0 | 0.00 | 0.11 | 0.00 | 61 | 1015.0 |
| 20260901193032 | 94 | 230 | 2.0 | 4.0 | 0.00 | 0.12 | 0.00 | 59 | 1015.0 |
| 20260901191542 | 94 | 311 | 1.0 | 4.0 | 0.00 | 0.12 | 0.00 | 61 | 1015.2 |
| 20260901190025 | 93 | 218 | 0.0 | 3.0 | 0.00 | 0.12 | 0.00 | 63 | 1015.2 |
| 20260901184536 | 93 | 194 | 1.0 | 4.0 | 0.00 | 0.12 | 0.00 | 66 | 1015.4 |
| 20260901183046 | 93 | 229 | 0.0 | 5.0 | 0.00 | 0.12 | 0.00 | 66 | 1015.4 |
| 20260901181532 | 92 | 241 | 1.0 | 4.0 | 0.00 | 0.12 | 0.00 | 65 | 1015.5 |
| 20260901180031 | 92 | 279 | 1.0 | 4.0 | 0.00 | 0.12 | 0.00 | 68 | 1015.6 |
| 20260901174528 | 91 | 228 | 1.0 | 4.0 | 0.00 | 0.12 | 0.00 | 67 | 1015.6 |
| 20260901173027 | 90 | 321 | 1.0 | 7.0 | 0.00 | 0.12 | 0.00 | 68 | 1015.7 |
| 20260901171520 | 90 | 234 | 1.0 | 4.0 | 0.00 | 0.12 | 0.00 | 69 | 1015.8 |
| 20260901170022 | 89 | 321 | 0.0 | 3.0 | 0.00 | 0.12 | 0.00 | 71 | 1015.9 |
| 20260901164532 | 88 | 242 | 1.0 | 3.0 | 0.00 | 0.12 | 0.00 | 71 | 1016.0 |
| 20260901163042 | 87 | 317 | 1.0 | 4.0 | 0.00 | 0.12 | 0.00 | 72 | 1016.0 |
| 20260901161535 | 87 | 263 | 1.0 | 3.0 | 0.00 | 0.12 | 0.00 | 74 | 1016.0 |
| 20260901160032 | 86 | 276 | 1.0 | 3.0 | 0.00 | 0.12 | 0.00 | 75 | 1015.9 |
| 20260901154524 | 85 | 237 | 0.0 | 3.0 | 0.00 | 0.12 | 0.00 | 77 | 1016.0 |
| 20260901153025 | 84 | 250 | 0.0 | 3.0 | 0.00 | 0.12 | 0.00 | 78 | 1015.9 |
| 20260901151539 | 83 | 232 | 0.0 | 4.0 | 0.00 | 0.12 | 0.00 | 80 | 1016.0 |
| 20260901150041 | 82 | 204 | 0.0 | 3.0 | 0.00 | 0.12 | 0.00 | 81 | 1016.0 |
| 20260901144538 | 81 | 240 | 0.0 | 3.0 | 0.00 | 0.12 | 0.00 | 82 | 1016.0 |
| 20260901143030 | 80 | 251 | 1.0 | 3.0 | 0.00 | 0.13 | 0.00 | 83 | 1016.0 |
| 20260901141504 | 79 | 214 | 0.0 | 2.0 | 0.00 | 0.18 | 0.00 | 85 | 1016.0 |
| 20260901140027 | 78 | 229 | 0.0 | 3.0 | 0.00 | 0.18 | 0.00 | 86 | 1015.8 |
| 20260901134518 | 77 | 207 | 0.0 | 2.0 | 0.00 | 0.20 | 0.00 | 88 | 1015.9 |
| 20260901133014 | 76 | 260 | 0.0 | 2.0 | 0.00 | 0.21 | 0.00 | 90 | 1016.0 |
| 20260901131511 | 76 | 235 | 0.0 | 1.0 | 0.00 | 0.21 | 0.00 | 92 | 1016.1 |
| 20260901130018 | 75 | 280 | 0.0 | 1.0 | 0.00 | 0.22 | 0.00 | 91 | 1016.2 |
| 20260901124532 | 75 | 247 | 0.0 | 2.0 | 0.00 | 0.27 | 0.00 | 92 | 1016.3 |
| 20260901123025 | 75 | 240 | 0.0 | 2.0 | 0.00 | 0.29 | 0.00 | 92 | 1016.1 |
| 20260901121521 | 74 | 313 | 0.0 | 1.0 | 0.00 | 0.29 | 0.00 | 93 | 1016.0 |
| 20260901120020 | 74 | 329 | 0.0 | 0.0 | 0.00 | 0.29 | 0.00 | 92 | 1015.6 |
| 20260901114510 | 74 | 235 | 0.0 | 2.0 | 0.00 | 0.29 | 0.00 | 92 | 1015.5 |
| 20260901113017 | 74 | 230 | 0.0 | 0.0 | 0.00 | 0.29 | 0.00 | 92 | 1015.4 |
| 20260901111531 | 74 | 230 | 0.0 | 0.0 | 0.00 | 0.29 | 0.00 | 91 | 1015.1 |
| 20260901110026 | 75 | 230 | 0.0 | 0.0 | 0.00 | 0.29 | 0.00 | 91 | 1015.0 |
| 20260901104526 | 75 | 230 | 0.0 | 0.0 | 0.00 | 0.29 | 0.00 | 90 | 1015.1 |
| 20260901103023 | 75 | 230 | 0.0 | 0.0 | 0.00 | 0.29 | 0.00 | 90 | 1015.1 |
| 20260901101535 | 76 | 230 | 0.0 | 0.0 | 0.00 | 0.29 | 0.00 | 89 | 1014.9 |
| 20260901100013 | 76 | 230 | 0.0 | 1.0 | 0.00 | 0.29 | 0.00 | 88 | 1015.0 |
| 20260901094539 | 76 | 266 | 0.0 | 1.0 | 0.00 | 0.29 | 0.00 | 88 | 1015.0 |
| 20260901093030 | 76 | 232 | 0.0 | 2.0 | 0.00 | 0.29 | 0.00 | 88 | 1014.8 |
| 20260901091545 | 76 | 221 | 0.0 | 2.0 | 0.00 | 0.29 | 0.00 | 87 | 1014.9 |
| 20260901090023 | 76 | 343 | 0.0 | 2.0 | 0.00 | 0.29 | 0.00 | 88 | 1014.7 |
| 20260901084533 | 76 | 209 | 0.0 | 1.0 | 0.00 | 0.29 | 0.00 | 88 | 1014.6 |
| 20260901083011 | 76 | 256 | 0.0 | 1.0 | 0.00 | 0.29 | 0.00 | 88 | 1014.7 |
| 20260901081535 | 76 | 209 | 0.0 | 2.0 | 0.00 | 0.29 | 0.00 | 89 | 1014.7 |
| 20260901080112 | 76 | 238 | 0.0 | 2.0 | 0.00 | 0.29 | 0.00 | 89 | 1014.6 |
| 20260901074529 | 75 | 238 | 0.0 | 2.0 | 0.00 | 0.29 | 0.00 | 90 | 1014.7 |
| 20260901073025 | 75 | 229 | 0.0 | 2.0 | 0.00 | 0.29 | 0.00 | 91 | 1014.7 |
| 20260901071521 | 75 | 247 | 0.0 | 3.0 | 0.00 | 0.29 | 0.00 | 92 | 1014.6 |
| 20260901070027 | 75 | 212 | 0.0 | 1.0 | 0.00 | 0.29 | 0.00 | 92 | 1014.6 |
| 20260901064534 | 74 | 212 | 0.0 | 1.0 | 0.00 | 0.29 | 0.00 | 92 | 1014.6 |
| 20260901063036 | 75 | 212 | 0.0 | 0.0 | 0.00 | 0.29 | 0.00 | 92 | 1014.4 |
| 20260901061532 | 75 | 212 | 0.0 | 0.0 | 0.00 | 0.29 | 0.00 | 92 | 1014.4 |
| 20260901060029 | 75 | 212 | 0.0 | 0.0 | 0.00 | 0.29 | 0.00 | 92 | 1014.5 |
| 20260901054525 | 75 | 212 | 0.0 | 0.0 | 0.00 | 0.29 | 0.00 | 92 | 1014.5 |
| 20260901053031 | 75 | 212 | 0.0 | 1.0 | 0.00 | 0.29 | 0.00 | 92 | 1014.5 |
| 20260901051516 | 75 | 212 | 0.0 | 1.0 | 0.00 | 0.29 | 0.00 | 92 | 1014.5 |
| 20260901050012 | 75 | 200 | 0.0 | 2.0 | 0.00 | 0.29 | 0.00 | 93 | 1014.5 |
| 20260901044509 | 75 | 200 | 0.0 | 2.0 | 0.00 | 0.29 | 0.29 | 94 | 1014.6 |
| 20260901043015 | 75 | 247 | 0.0 | 1.0 | 0.00 | 0.29 | 0.29 | 94 | 1014.6 |
| 20260901041533 | 75 | 223 | 0.0 | 1.0 | 0.00 | 0.29 | 0.29 | 94 | 1014.7 |
| 20260901040025 | 75 | 223 | 0.0 | 1.0 | 0.00 | 0.29 | 0.29 | 94 | 1014.8 |
| 20260901034522 | 75 | 223 | 0.0 | 1.0 | 0.00 | 0.29 | 0.29 | 94 | 1014.7 |
| 20260901033017 | 75 | 223 | 0.0 | 0.0 | 0.00 | 0.29 | 0.29 | 94 | 1014.8 |
| 20260901031511 | 75 | 223 | 0.0 | 0.0 | 0.00 | 0.29 | 0.29 | 94 | 1014.8 |
| 20260901030007 | 76 | 223 | 0.0 | 0.0 | 0.00 | 0.29 | 0.29 | 94 | 1014.7 |
| 20260901024534 | 75 | 223 | 0.0 | 0.0 | 0.00 | 0.30 | 0.29 | 94 | 1014.8 |
| 20260901023028 | 75 | 223 | 0.0 | 0.0 | 0.00 | 0.31 | 0.29 | 93 | 1015.1 |
| 20260901021529 | 75 | 223 | 0.0 | 0.0 | 0.00 | 0.31 | 0.29 | 93 | 1015.2 |
| 20260901020016 | 76 | 223 | 0.0 | 0.0 | 0.00 | 0.31 | 0.29 | 93 | 1014.9 |
| 20260901014514 | 76 | 223 | 0.0 | 0.0 | 0.00 | 0.31 | 0.29 | 93 | 1014.6 |
| 20260901013010 | 76 | 223 | 0.0 | 0.0 | 0.00 | 0.31 | 0.29 | 93 | 1014.7 |
| 20260901011532 | 76 | 223 | 0.0 | 0.0 | 0.00 | 0.31 | 0.29 | 92 | 1014.5 |
| 20260901010035 | 77 | 223 | 0.0 | 0.0 | 0.00 | 0.31 | 0.29 | 92 | 1014.6 |
| 20260901004527 | 77 | 223 | 0.0 | 0.0 | 0.00 | 0.31 | 0.29 | 92 | 1014.6 |
| 20260901003021 | 78 | 223 | 0.0 | 0.0 | 0.00 | 0.31 | 0.29 | 92 | 1014.6 |
| 20260901001514 | 78 | 283 | 0.0 | 1.0 | 0.00 | 0.31 | 0.29 | 92 | 1014.5 |
| 20260901000018 | 78 | 283 | 0.0 | 0.0 | 0.00 | 0.31 | 0.29 | 92 | 1014.2 |
| 20260831234534 | 78 | 283 | 0.0 | 1.0 | 0.00 | 0.32 | 0.29 | 91 | 1013.5 |
| 20260831233030 | 79 | 283 | 0.0 | 0.0 | 0.01 | 0.32 | 0.29 | 91 | 1014.4 |
| 20260831231547 | 80 | 283 | 0.0 | 0.0 | 0.10 | 0.32 | 0.29 | 91 | 1014.9 |
| 20260831230030 | 80 | 283 | 0.0 | 0.0 | 0.10 | 0.32 | 0.29 | 90 | 1014.2 |
| 20260831224543 | 81 | 283 | 0.0 | 0.0 | 0.10 | 0.33 | 0.29 | 88 | 1014.2 |
| 20260831223033 | 81 | 283 | 0.0 | 0.0 | 0.09 | 0.32 | 0.28 | 85 | 1014.1 |
| 20260831221544 | 83 | 282 | 0.0 | 0.0 | 0.00 | 0.23 | 0.19 | 83 | 1014.3 |
| 20260831220031 | 84 | 282 | 0.0 | 0.0 | 0.00 | 0.23 | 0.19 | 80 | 1013.9 |
| 20260831214536 | 84 | 299 | 0.0 | 2.0 | 0.00 | 0.24 | 0.19 | 76 | 1013.6 |
| 20260831213028 | 86 | 209 | 0.0 | 2.0 | 0.00 | 0.24 | 0.19 | 76 | 1013.6 |